Temp
22 23 26 29 29 31 32 32 33 31 31 32 31 30 31 31 31 29 25 23 22 22 22 20 20 20 20 19 19 19 20 19 19 19 19 19 18 19 18 18 18 18 18 17 17 17 16 16 17
25 26 27 31 30 32 33 33 31 32 32 31 30 30 30 30 31 30 27 23 22 21 23 22 20 20 20 20 19 19 19 18 18 19 19 19 18 18 18 18 18 18 17 17 17 16 16 16 17
24 27 29 31 32 32 32 32 32 31 31 30 30 31 31 30 29 28 24 23 22 21 21 22 20 20 20 20 19 19 19 19 18 19 19 18 18 18 18 18 17 18 17 17 17 16 15 16 17
26 29 30 29 31 32 31 32 31 31 31 31 31 30 30 28 28 26 23 22 22 19 20 20 20 21 20 20 20 20 20 19 18 18 18 18 18 18 18 17 17 17 17 17 16 15 15 16 17
27 30 30 31 32 32 31 31 31 31 30 30 30 30 30 28 25 23 23 21 22 20 19 19 19 20 19 19 19 18 19 18 18 18 18 18 18 18 18 17 17 17 17 16 15 15 16 16 16
29 31 30 31 33 32 31 31 30 30 31 30 30 30 30 26 25 24 21 21 20 20 18 18 18 18 18 18 18 16 18 18 16 18 18 18 17 17 18 17 17 16 16 16 15 14 16 16 16
28 30 30 32 32 31 31 31 30 30 30 31 31 29 30 28 24 22 19 18 18 19 18 18 18 17 17 17 19 17 17 17 16 18 18 17 18 17 17 17 17 16 16 15 15 15 16 16 16
30 30 30 32 31 31 32 30 31 30 30 30 31 29 30 28 23 22 19 18 17 16 17 17 17 16 16 18 17 16 17 17 16 18 17 18 16 17 17 16 16 16 16 15 16 15 15 15 15
30 28 29 31 31 31 32 30 32 31 30 31 30 30 29 26 23 23 19 17 17 15 16 16 16 16 16 16 16 17 17 17 16 17 17 17 16 16 16 16 16 16 15 15 15 15 15 15 15
28 29 30 33 32 31 31 30 30 30 31 30 30 29 26 25 25 25 24 19 18 16 15 15 15 15 15 16 16 16 17 17 16 17 16 16 16 16 16 16 15 16 15 15 15 15 15 15 15
29 28 31 32 31 31 31 30 31 30 30 31 30 30 30 27 26 26 25 22 19 18 16 15 15 15 15 15 15 16 16 16 16 16 15 16 15 15 16 15 15 14 15 14 14 15 15 17 16
28 29 30 31 31 30 30 30 30 31 30 31 30 30 30 28 27 27 25 24 20 19 17 15 14 15 15 15 15 16 16 16 15 15 15 14 15 14 15 16 15 15 15 15 15 16 18 17 17
28 29 30 30 30 30 29 29 29 30 31 31 30 28 28 28 28 26 25 23 21 20 18 15 15 15 14 14 15 15 15 15 15 15 15 14 14 14 15 16 16 16 17 16 16 18 17 17 17
29 29 29 30 30 30 29 29 29 30 31 30 28 28 28 28 28 27 25 23 21 21 20 16 15 14 15 15 15 14 14 14 14 14 15 15 14 14 15 16 16 17 17 17 18 17 17 17 17
28 27 28 29 29 29 29 28 29 30 30 29 28 28 28 28 27 26 25 23 21 21 21 18 15 14 15 14 14 13 13 13 14 13 13 13 13 13 14 15 16 17 17 17 18 17 17 18 17
26 27 26 29 30 30 29 28 31 32 29 29 29 28 28 27 27 26 24 23 22 21 20 17 15 14 14 14 13 13 12 12 12 11 11 12 13 14 15 15 15 16 16 16 16 17 17 18 18
26 26 27 28 30 30 29 28 31 31 30 29 30 29 28 28 27 26 24 22 21 20 20 18 15 14 14 14 13 12 12 12 12 12 13 12 13 14 15 13 14 14 15 15 16 16 17 17 18
24 26 27 28 31 29 29 28 30 31 30 30 30 30 29 28 27 26 24 22 21 21 19 17 14 13 13 13 13 12 12 11 12 11 11 11 11 12 13 13 14 15 15 15 15 16 16 17 18
26 28 28 30 30 28 28 29 30 31 31 31 30 30 30 29 29 26 24 22 21 19 18 16 13 13 12 12 12 12 11 11 11 11 11 11 12 13 13 14 14 15 15 15 15 15 16 17 17
25 26 27 28 29 27 28 29 30 30 31 31 31 31 30 30 29 27 23 22 20 19 17 16 14 12 12 12 12 12 12 11 11 11 11 12 13 15 16 16 15 15 15 15 15 15 16 16 16
25 25 26 27 29 28 27 27 29 30 31 31 31 31 31 30 29 27 24 22 20 19 17 16 13 13 13 13 12 12 11 11 11 12 12 13 15 15 15 14 14 15 15 15 15 16 16 17 15
23 26 26 26 26 25 29 26 30 31 31 31 31 30 30 30 30 28 24 22 21 19 17 15 13 13 13 13 12 12 11 12 12 12 12 13 14 14 14 14 14 14 15 15 14 15 15 16 15
23 26 26 26 25 25 26 26 28 30 30 30 31 31 31 30 30 28 25 22 21 20 18 15 13 13 13 13 12 12 12 12 12 12 12 13 13 13 14 15 14 15 15 15 15 16 14 15 15
24 24 24 25 25 23 26 26 28 29 30 31 31 31 31 31 30 29 26 23 22 20 18 16 15 14 13 13 13 14 13 12 11 11 12 12 13 13 14 14 15 15 14 14 15 15 14 15 15
23 24 22 22 23 22 27 26 27 30 30 30 30 31 31 30 29 29 27 25 23 21 18 16 16 15 13 13 13 14 14 13 12 12 12 12 12 13 14 14 14 14 15 14 15 15 15 15 15
22 23 23 22 23 24 28 25 28 30 30 31 30 30 31 30 29 29 28 26 23 21 19 17 16 16 14 13 14 14 14 14 13 13 12 12 12 13 14 14 14 14 14 15 15 15 15 14 14
20 21 24 21 23 23 25 27 28 28 29 30 30 30 30 30 30 29 28 26 24 22 20 18 18 18 16 14 14 14 15 14 14 14 13 13 13 13 13 14 13 14 15 15 15 15 15 15 15
21 22 20 21 20 21 24 26 26 28 27 29 29 29 30 30 30 29 28 26 24 23 21 19 18 19 18 16 14 14 14 14 15 14 14 14 15 15 15 14 13 14 14 15 15 16 15 15 15
20 20 20 21 22 21 21 24 28 28 28 28 29 29 29 29 29 29 28 27 25 23 21 19 18 19 20 18 17 16 15 15 15 15 15 15 15 15 15 15 14 14 15 15 15 15 15 15 15
23 22 22 20 20 22 23 22 28 27 26 27 28 29 29 29 29 28 28 27 25 24 22 20 19 19 20 19 18 17 17 17 15 15 16 15 15 15 15 15 15 15 15 15 15 15 15 16 16
Height
772 771 768 762 768 748 742 735 729 739 740 731 734 741 738 736 741 757 750 752 754 755 756 760 762 764 766 769 770 773 776 779 781 784 787 791 796 798 800 804 804 807 813 815 818 820 823 824 827
771 770 765 750 763 746 726 726 742 734 733 736 740 740 741 742 733 740 747 753 755 756 758 760 761 764 766 767 770 774 777 781 783 786 791 794 797 800 803 804 808 807 814 818 818 823 825 828 828
770 768 759 747 744 744 734 731 733 732 736 738 739 734 734 738 739 745 753 755 756 757 757 758 760 763 766 767 770 773 775 779 782 785 791 795 798 803 804 805 809 806 816 819 820 824 826 829 830
768 762 754 757 744 727 737 730 732 737 737 735 734 739 735 741 745 750 754 755 756 757 759 758 760 761 764 768 773 771 775 780 780 785 790 794 799 803 806 809 811 811 816 820 822 824 828 831 833
766 751 755 746 736 729 733 732 735 736 736 736 737 739 738 740 748 751 754 755 756 757 758 759 758 762 766 767 773 773 779 776 770 779 790 792 799 802 806 810 813 817 816 819 823 826 829 833 837
759 748 753 742 724 726 732 732 735 737 731 735 740 737 735 740 747 751 753 754 755 757 757 758 761 762 765 764 775 776 783 777 777 783 793 792 799 803 806 812 815 819 819 819 823 828 832 836 839
759 747 748 732 730 728 733 730 735 732 732 731 727 742 732 736 746 751 753 754 755 756 756 757 762 763 765 767 771 779 784 779 781 786 789 794 799 803 807 811 816 821 822 821 824 830 834 838 842
749 745 746 729 734 730 721 732 728 734 731 729 730 738 734 736 745 750 752 753 755 754 755 757 761 763 763 765 765 776 781 773 782 787 788 791 800 804 809 815 817 823 825 824 825 832 835 839 844
746 756 747 728 726 724 718 734 719 724 729 724 728 731 732 739 745 747 752 753 754 754 754 756 759 762 765 767 769 774 778 780 777 786 789 792 798 808 812 817 817 823 827 827 828 833 837 841 846
749 747 736 713 717 722 718 729 727 728 724 722 724 725 732 737 740 741 744 751 753 753 755 757 759 761 764 766 769 774 778 780 784 788 792 795 800 806 812 817 818 822 828 829 833 834 840 845 850
740 745 722 715 723 717 720 724 718 724 728 715 719 720 720 730 734 736 739 745 751 752 755 757 758 761 764 766 769 772 774 778 782 786 790 795 800 805 812 816 820 823 830 833 837 838 843 847 851
742 731 724 719 718 724 725 720 720 716 718 712 716 719 720 725 728 731 735 739 747 750 753 755 757 760 763 764 765 768 771 774 777 781 786 790 792 801 811 814 821 825 832 835 838 838 843 847 851
732 728 722 717 718 721 722 724 721 718 711 710 714 720 719 722 724 728 733 739 744 748 751 754 757 759 761 764 764 764 766 768 771 774 779 785 785 797 804 813 820 825 831 835 837 838 843 847 851
722 723 723 717 716 716 723 721 719 711 705 710 716 717 716 718 721 724 732 737 742 744 748 752 755 757 760 762 763 763 763 765 767 768 772 780 785 801 805 807 820 824 829 833 835 839 842 847 850
723 732 722 718 714 715 714 721 716 704 703 709 711 715 714 715 718 722 727 733 740 743 744 751 753 755 758 760 760 760 761 761 763 768 766 774 782 799 802 811 818 822 827 832 834 840 842 846 849
732 729 735 711 705 705 713 722 697 689 703 706 705 708 711 713 716 719 725 730 735 739 743 749 752 755 757 759 759 760 761 762 763 768 766 777 788 796 798 812 817 822 826 831 835 839 841 846 849
729 733 721 713 699 703 710 713 688 689 698 702 700 701 704 708 713 715 722 729 734 738 741 747 751 754 757 759 760 761 764 766 767 768 775 786 790 796 805 814 820 821 826 831 835 838 841 845 849
737 724 717 712 691 702 706 709 692 686 693 695 692 692 697 702 706 712 719 726 730 734 739 745 750 753 757 759 762 764 766 770 773 776 780 787 797 806 814 820 822 823 827 832 836 840 843 847 848
720 707 702 690 686 702 703 700 690 683 682 684 688 686 690 693 697 707 717 723 728 733 738 743 748 751 755 758 761 765 767 773 778 783 788 794 803 810 816 819 820 822 827 830 836 841 844 845 848
720 716 708 699 690 707 704 698 686 682 679 678 677 677 680 685 691 702 713 719 726 732 736 740 746 750 754 757 759 763 767 775 781 785 790 796 802 808 813 816 820 822 828 833 837 840 841 843 846
715 716 711 708 693 698 705 702 690 676 672 670 669 670 670 677 685 696 709 715 722 728 733 737 742 748 752 755 758 764 770 775 782 786 791 796 800 805 809 812 815 817 825 830 834 834 836 839 843
721 704 703 704 710 718 690 708 677 664 664 666 667 669 670 672 678 687 703 711 715 722 729 734 739 745 749 753 755 761 765 772 778 782 788 793 797 802 806 808 812 819 823 827 829 830 832 836 838
712 700 698 698 709 712 702 707 685 666 667 665 662 659 660 666 671 681 694 704 711 717 724 730 735 742 746 750 753 759 765 771 777 783 788 791 795 799 804 807 812 814 818 822 823 822 829 832 835
706 705 706 703 708 718 699 699 684 669 662 658 653 652 654 658 667 676 687 699 705 713 721 726 730 736 743 747 750 754 761 767 773 779 785 789 792 796 800 804 807 812 815 818 818 821 827 827 830
706 704 718 722 717 716 680 692 682 656 652 654 655 652 651 656 665 672 682 691 699 707 716 722 726 730 736 743 747 750 755 762 766 770 776 782 786 789 793 799 804 808 811 814 814 820 823 823 825
703 700 705 718 707 696 666 693 670 650 646 648 650 650 649 656 660 666 674 686 693 701 709 716 721 726 730 736 743 747 751 755 761 765 770 774 778 782 788 794 799 803 808 808 812 815 817 819 822
713 707 691 713 699 702 685 669 655 655 656 650 650 650 650 650 653 661 668 679 688 695 702 709 714 719 726 730 736 742 746 749 753 758 765 769 773 778 783 788 792 796 800 803 806 809 812 814 816
705 700 717 712 719 715 687 676 672 661 662 653 654 651 649 648 648 655 663 673 682 690 698 705 710 713 719 726 729 734 739 743 747 752 756 761 767 773 777 782 786 788 791 796 800 802 804 806 808
704 706 710 701 698 704 705 684 648 653 657 656 652 653 653 652 652 653 658 666 677 684 691 697 704 707 711 717 724 727 731 736 742 745 749 753 759 763 769 773 778 781 785 789 792 794 797 799 801
676 684 690 707 705 691 692 695 651 655 663 658 652 654 651 650 651 653 656 663 671 678 685 690 696 700 704 709 714 720 725 729 733 736 741 747 751 756 761 765 769 772 776 780 782 785 788 790 792
Wind_Speed
7 7 9 8 7 7 15 2 7 5 6 3 4 7 13 12 10 5 5 3 2 2 8 7 15 12 12 21 26 27 28 27 30 31 30 30 30 29 28 27 29 28 24 25 25 24 24 24 28
9 8 10 7 8 12 4 8 6 3 3 3 5 6 8 10 6 3 1 4 2 2 7 9 14 14 15 20 24 28 27 27 28 29 30 31 30 29 28 29 28 29 25 25 25 23 23 24 26
9 11 10 6 11 11 7 6 3 3 1 4 5 2 7 5 8 4 4 3 1 4 5 12 14 15 15 20 25 29 29 29 30 32 32 30 30 27 28 29 29 31 26 24 24 23 22 24 25
10 9 7 9 16 1 8 3 1 4 5 4 3 7 4 6 1 2 3 2 0 2 3 9 13 16 17 18 22 27 26 25 34 33 32 32 30 29 28 30 29 29 29 25 24 23 23 23 23
14 8 13 14 15 1 3 2 4 6 1 2 5 10 1 7 4 3 1 1 1 2 7 8 15 17 17 13 16 14 15 19 31 36 35 33 32 33 33 31 28 26 30 28 24 23 27 25 25
9 8 13 13 11 7 4 2 6 7 4 5 8 9 7 10 5 4 1 1 3 5 7 10 12 18 15 17 14 5 19 16 28 30 28 31 33 34 33 29 28 27 29 29 26 25 27 25 25
15 13 16 18 12 7 8 3 10 6 8 7 3 9 4 9 6 4 2 1 3 7 9 9 10 15 21 23 23 16 23 21 26 29 31 23 29 33 31 30 29 29 27 29 27 26 26 24 26
13 14 20 15 12 11 11 8 6 10 8 3 4 9 9 10 8 7 3 1 1 5 9 9 9 13 15 19 23 23 21 25 35 30 31 31 22 31 32 29 30 29 26 27 27 26 25 24 25
10 14 15 17 12 11 11 10 9 5 10 9 6 10 7 4 8 8 5 1 2 6 9 14 10 13 14 18 24 25 19 25 28 27 27 25 28 25 28 28 32 29 26 25 27 26 25 25 24
16 13 21 10 8 8 3 7 12 8 13 13 13 12 9 8 10 9 7 4 6 6 10 12 8 13 12 15 10 13 11 14 21 23 22 25 29 31 28 28 32 30 26 26 26 26 25 23 21
19 19 21 9 8 11 9 14 11 11 15 13 12 12 7 9 11 11 9 6 7 7 7 10 12 8 11 9 12 13 14 14 18 22 27 28 27 31 27 30 31 28 27 23 24 28 22 20 21
20 22 18 20 8 10 14 16 18 13 14 10 9 11 9 9 9 9 8 7 9 9 10 11 12 10 6 8 11 11 16 17 16 22 24 32 39 38 33 32 26 27 24 24 25 24 19 19 18
20 21 20 15 15 15 15 18 18 20 16 15 5 8 9 9 9 8 7 7 11 10 10 12 12 12 9 9 10 16 13 14 14 22 28 20 36 37 36 30 27 27 24 24 23 20 20 18 17
16 18 20 22 17 16 17 18 20 22 15 6 8 11 11 10 10 8 9 9 10 10 10 8 9 10 8 8 7 10 14 14 16 22 32 41 45 32 37 35 30 27 26 23 21 20 20 18 16
18 19 20 19 19 19 16 21 23 22 13 11 11 11 11 10 11 10 11 11 12 12 10 10 9 9 6 6 10 12 14 18 28 31 42 46 44 38 35 32 30 26 25 22 18 19 18 17 17
13 18 19 20 23 20 16 20 21 15 10 12 12 11 12 12 12 12 11 12 11 9 8 12 11 10 8 8 9 15 22 26 33 31 36 43 39 36 36 29 23 23 21 20 19 19 17 16 16
17 17 19 21 11 10 13 17 21 10 12 12 11 12 12 13 13 14 13 13 12 11 11 12 12 12 10 10 11 22 23 28 31 40 40 34 31 28 28 19 18 24 21 21 18 15 15 14 15
20 20 19 20 14 13 16 19 19 13 15 14 14 12 13 14 15 16 15 14 12 10 10 13 14 13 12 14 14 24 26 31 35 29 36 37 34 35 31 24 28 27 26 21 16 14 14 14 14
22 23 18 12 3 8 14 17 18 17 18 14 15 13 13 14 13 16 16 15 12 11 13 14 15 15 17 18 21 27 20 30 31 32 37 38 32 34 30 26 23 20 20 15 18 20 17 15 13
25 23 21 17 9 6 17 17 16 17 17 19 15 16 15 14 13 14 17 17 15 14 14 15 15 16 18 20 20 26 32 29 28 29 30 30 32 34 29 30 26 28 23 21 22 21 17 14 14
22 23 21 19 15 7 16 20 21 19 22 16 17 12 12 13 15 17 16 19 17 16 16 17 16 18 18 21 22 26 28 27 25 27 31 28 32 33 28 27 27 26 21 23 24 21 18 16 14
21 19 22 18 15 14 17 15 16 9 14 18 15 14 14 13 14 17 17 19 20 18 18 18 19 20 19 20 24 30 29 31 29 33 33 30 33 37 33 30 28 31 24 23 23 18 17 14 13
21 18 20 17 13 17 21 11 13 19 17 14 14 16 17 14 14 17 19 21 21 20 21 21 21 20 21 24 27 29 26 29 26 27 28 28 30 33 35 34 33 31 27 21 20 12 15 18 15
18 17 13 12 13 15 18 16 14 14 15 16 11 9 10 15 14 16 20 22 22 21 21 22 24 23 22 26 26 29 31 27 29 27 27 27 31 34 30 31 29 29 23 20 18 20 24 23 20
19 13 9 10 11 12 14 13 15 5 1 6 6 8 11 11 12 15 19 18 23 24 23 23 25 26 26 26 28 27 32 35 32 35 31 29 28 29 36 34 34 33 30 21 21 23 23 22 23
17 18 9 14 11 12 18 7 11 12 9 6 4 6 8 10 12 16 19 17 24 26 26 25 26 26 28 29 30 30 29 32 35 37 35 33 33 35 40 42 39 34 33 25 24 24 23 21 22
13 18 19 9 14 5 8 10 4 8 7 8 2 7 11 13 13 16 18 21 25 26 28 27 27 27 29 29 30 30 31 31 33 37 39 37 34 34 37 43 39 40 42 38 29 25 27 22 25
17 12 9 8 6 12 11 13 7 10 10 8 4 1 3 4 8 14 16 19 26 27 27 27 26 28 29 30 31 32 33 33 31 33 39 40 41 39 39 39 39 38 40 35 35 33 26 26 26
17 19 13 14 15 4 3 5 6 7 3 10 8 4 6 3 3 11 14 20 26 26 28 28 28 29 30 31 31 32 34 34 32 32 35 38 38 39 40 38 38 38 37 37 37 36 31 30 29
20 20 20 8 11 11 10 4 5 9 6 11 9 4 1 3 2 5 10 14 23 26 28 30 30 31 30 31 32 32 31 33 36 36 34 34 35 37 40 37 37 38 38 38 38 36 34 33 32
Wind_Direction
220 223 243 246 246 226 270 231 336 259 219 86 351 301 331 340 317 347 64 49 52 151 153 160 198 195 197 195 198 195 191 182 177 173 169 165 163 160 154 149 143 138 133 129 126 122 118 121 124
217 223 234 269 256 263 270 85 230 291 353 25 276 245 243 264 51 61 284 51 70 164 189 193 201 202 206 201 200 197 190 179 175 173 171 169 166 162 161 154 148 139 136 132 128 126 124 128 133
231 233 267 239 251 275 360 102 291 32 251 231 224 263 332 360 56 31 54 49 125 188 191 210 206 206 207 207 200 196 188 183 180 176 173 170 168 168 161 153 150 139 137 135 132 131 130 139 138
207 217 244 254 268 211 283 49 347 203 137 203 262 273 131 52 46 77 97 52 29 240 204 210 212 206 205 209 210 204 192 195 179 174 172 169 171 168 159 154 148 143 141 137 135 134 139 146 141
243 264 260 238 268 135 248 345 258 244 177 204 211 264 294 121 125 143 167 188 265 234 235 219 216 208 195 209 226 211 201 199 183 171 173 169 169 166 160 154 149 149 142 140 139 136 142 139 136
234 252 260 259 243 150 219 201 245 233 269 206 249 260 286 114 173 170 226 250 207 225 228 222 221 204 214 189 204 253 256 241 214 173 175 169 168 166 159 159 154 150 150 148 145 144 147 144 146
246 257 265 286 287 173 210 172 234 257 284 254 255 266 284 165 145 161 157 169 232 220 220 206 201 204 203 193 201 236 218 231 207 183 174 175 173 167 161 160 153 159 158 150 145 147 149 150 152
246 265 272 268 270 248 167 220 213 246 260 77 272 266 320 83 148 161 137 193 230 200 217 206 196 182 186 202 199 231 231 208 212 184 174 165 186 166 158 159 157 163 160 147 143 150 153 154 154
249 263 257 260 246 270 147 239 191 277 267 222 226 268 1 133 169 192 153 198 207 200 213 209 198 191 192 191 192 217 206 200 204 188 172 172 174 171 164 163 159 161 159 148 149 153 153 151 151
235 238 253 307 322 249 215 234 272 267 260 232 213 220 201 203 215 233 227 198 238 199 213 215 191 202 181 180 184 183 187 178 182 177 176 174 172 174 168 169 162 159 158 153 152 150 147 136 144
229 247 271 283 251 279 237 257 240 247 260 279 337 331 230 206 224 234 226 188 225 207 201 209 214 196 202 198 203 204 202 199 201 204 200 200 190 177 184 165 160 154 156 147 147 142 142 149 152
241 253 260 275 258 250 258 268 273 259 275 303 285 308 282 209 224 235 239 182 184 207 201 195 195 206 218 222 214 219 219 217 209 206 203 194 193 174 181 168 158 152 156 154 151 149 152 155 159
238 248 263 250 261 250 259 266 268 271 276 277 244 261 246 222 226 226 231 195 185 202 188 186 190 210 220 220 233 231 234 224 209 204 204 186 157 171 168 167 158 160 161 160 158 156 156 158 162
253 245 256 263 251 246 253 258 262 256 256 246 242 245 230 219 227 208 208 183 205 206 197 187 182 185 204 217 208 217 229 226 215 202 197 189 170 173 164 165 173 167 163 164 164 158 157 160 159
258 263 258 254 252 253 246 257 252 252 253 245 227 230 233 220 218 212 197 195 201 207 205 199 184 199 200 204 218 207 207 176 180 167 153 147 148 164 159 171 169 163 166 169 154 160 156 160 160
252 244 256 255 236 240 228 259 268 217 187 220 222 225 220 216 220 207 196 200 194 208 212 185 179 176 190 186 181 164 157 144 137 132 124 142 156 153 149 162 167 162 158 158 160 165 161 165 164
240 246 236 250 193 229 220 246 238 162 204 230 234 223 213 215 214 208 191 200 193 201 200 186 177 173 183 168 166 153 158 140 143 138 144 148 145 149 157 162 168 158 150 159 153 161 163 171 169
237 231 235 260 224 211 221 239 271 196 209 235 246 221 220 211 209 207 194 196 196 192 188 191 177 174 179 178 166 159 144 149 152 145 147 152 158 166 179 182 173 159 157 157 158 165 173 181 180
252 261 250 249 211 216 246 252 251 248 256 229 240 240 221 222 212 194 196 193 189 188 186 178 170 182 180 178 159 159 135 152 152 156 160 164 174 178 181 171 168 158 161 168 176 176 180 182 187
243 252 259 263 256 212 262 260 257 253 253 254 251 251 215 218 206 181 192 193 191 189 186 183 178 173 178 174 168 164 157 151 158 163 165 170 177 181 172 173 174 169 173 179 181 182 171 177 186
237 240 248 253 274 208 259 267 261 251 253 251 250 251 260 211 207 181 197 194 187 191 188 183 173 174 176 177 159 158 156 150 160 164 167 185 180 178 195 182 176 174 177 185 189 180 179 176 188
239 231 248 260 263 257 248 273 262 275 219 226 232 234 228 230 204 187 193 195 193 191 188 180 175 179 177 174 153 157 163 167 175 174 182 189 189 185 190 183 179 181 183 188 190 181 185 188 190
244 251 259 253 248 257 252 253 264 261 239 230 236 234 223 209 205 195 190 193 193 186 186 180 176 182 179 178 165 168 168 175 178 182 187 189 188 192 193 191 186 189 192 195 193 193 207 209 211
242 243 250 245 244 244 241 244 251 252 212 222 225 224 214 190 199 197 183 188 187 185 186 183 182 182 184 183 178 176 177 177 170 176 184 187 188 189 187 192 195 197 200 208 195 203 217 213 218
227 209 213 213 223 237 235 223 235 210 136 252 245 232 218 187 201 195 183 187 184 187 186 190 188 187 185 186 188 190 181 186 182 183 185 185 187 192 197 197 197 206 213 217 210 219 226 228 228
214 219 220 219 221 232 213 228 233 237 243 200 224 251 198 192 205 203 192 189 188 187 187 194 192 193 186 187 194 196 190 185 193 192 193 193 194 196 197 201 207 210 219 219 226 224 223 224 233
229 228 237 316 273 261 202 218 129 174 221 219 266 245 233 225 200 205 194 189 193 190 192 194 193 195 195 190 193 198 199 194 195 199 199 202 203 204 205 209 208 213 225 222 229 230 226 233 240
237 233 247 240 248 237 250 256 218 172 216 198 219 99 54 282 211 196 197 190 196 193 192 195 201 202 198 200 196 198 199 200 200 198 202 207 212 212 211 211 213 216 219 223 231 236 232 233 232
213 229 231 223 238 239 240 255 357 141 158 273 102 100 69 60 215 203 202 194 198 194 192 196 199 204 202 201 203 203 202 204 205 206 203 205 206 207 211 213 215 217 218 225 229 234 234 234 235
228 217 215 235 241 248 247 271 247 77 24 358 353 341 50 98 59 196 208 200 196 199 197 198 200 204 207 204 203 206 205 205 205 209 208 206 207 207 208 211 214 216 220 224 225 228 229 232 239